Flag for Vietnam Weather past 2 weeks in Hanoi, Vietnam

81 °F

Scattered clouds.

Feels Like: 83 °F
Forecast: 67 / 82 °F
Wind: 6 mph from South

Location: Ha Noi Airport

Current Time: Dec 1, 2015 at 12:51:17 PM

Latest Report: Dec 1, 2015 at 11:30 AM

Visibility: 3 mi

Pressure: 29.95 "Hg

Humidity: 66%

Dew point: 68 °F

Location of HanoiLocation

Historic Weather in Hanoi — Graph


Hanoi temperature yesterday

Maximum temperature yesterday: 73 °F (at 12:00 PM)
Minimum temperature yesterday: 68 °F (at 12:30 AM)
Average temperature yesterday: 70 °F

Past Weeks' High & Low Weather Summary

High93 °F (Nov 17, 12:00 PM)94% (Nov 17, 6:00 AM)30.24 "Hg (Nov 17, 6:00 AM)
Low59 °F (Nov 26, 1:30 AM)39% (Nov 17, 1:00 PM)29.71 "Hg (Nov 16, 2:30 PM)
Average75 °F75%30.01 "Hg
* Reported Nov 16 11:00 AM — Dec 1 11:30 AM, Hanoi, Weather by CustomWeather, © 2015

Note: Actual official high and low records may vary slightly from our data, if they occured in-between our weather recording intervals... More about our weather records


Hanoi weather history for previous 24 hours

Time TempWeatherWind HumidityBarometerVisibility
11:30 AM
Tue, Dec 1
81 °FScattered clouds.6 mph66%29.95 "Hg3 mi
11:00 AM79 °FFog.5 mph74%29.98 "Hg3 mi
10:30 AM77 °FFog.5 mph74%30.01 "Hg3 mi
10:00 AM75 °FFog.6 mph78%30.01 "Hg3 mi
9:30 AM75 °FBroken clouds.7 mph74%30.01 "Hg3 mi
9:00 AM73 °FBroken clouds.9 mph78%30.01 "Hg3 mi
7:30 AM70 °FFog.8 mph83%29.98 "Hg2 mi
6:30 AM70 °FFog.9 mph83%29.98 "Hg2 mi
6:00 AM70 °FFog.7 mph83%29.98 "Hg2 mi
5:30 AM70 °FFog.8 mph83%29.95 "Hg2 mi
5:00 AM70 °FFog.8 mph83%29.95 "Hg2 mi
4:30 AM70 °FFog.9 mph83%29.95 "Hg2 mi
4:00 AM70 °FFog.8 mph83%29.95 "Hg2 mi
3:30 AM70 °FFog.5 mph83%29.95 "Hg2 mi
3:00 AM70 °FFog.7 mph83%29.95 "Hg2 mi
2:30 AM70 °FFog.3 mph83%29.95 "Hg2 mi
2:00 AM70 °FFog.7 mph83%29.98 "Hg2 mi
1:30 AM70 °FFog.7 mph83%29.98 "Hg2 mi
1:00 AM70 °FFog.6 mph83%29.98 "Hg2 mi
12:30 AM70 °FFog.6 mph83%29.98 "Hg2 mi
12:00 AM70 °FFog.6 mph83%30.01 "Hg2 mi
11:30 PM
Mon, Nov 30
70 °FFog.7 mph83%30.01 "Hg2 mi
11:00 PM70 °FPartly cloudy.6 mph83%30.01 "Hg3 mi
10:30 PM70 °FPartly cloudy.6 mph83%30.01 "Hg3 mi
10:00 PM70 °FPartly cloudy.6 mph83%30.01 "Hg3 mi
9:30 PM70 °FPartly cloudy.6 mph83%30.01 "Hg4 mi
9:00 PM70 °FPartly cloudy.7 mph78%30.01 "Hg4 mi
8:30 PM70 °FPartly cloudy.7 mph78%30.01 "Hg4 mi
8:00 PM70 °FPartly cloudy.7 mph78%30.01 "Hg4 mi
7:30 PM70 °FPartly cloudy.6 mph78%30.01 "Hg4 mi
7:00 PM70 °FPartly cloudy.5 mph78%30.01 "Hg4 mi
6:30 PM70 °FPartly cloudy.5 mph78%30.01 "Hg4 mi
6:00 PM70 °FPartly cloudy.8 mph78%29.98 "Hg4 mi
5:30 PM70 °FPartly cloudy.6 mph78%29.98 "Hg5 mi
5:00 PM70 °FPartly sunny.8 mph78%29.98 "Hg6 mi
4:30 PM72 °FPartly sunny.9 mph73%29.98 "HgN/A
4:00 PM72 °FPartly sunny.10 mph73%29.98 "HgN/A
3:30 PM72 °FBroken clouds.9 mph73%29.98 "HgN/A
3:00 PM72 °FBroken clouds.8 mph69%29.98 "HgN/A
2:00 PM72 °FBroken clouds.9 mph73%30.01 "HgN/A
1:30 PM73 °FBroken clouds.9 mph65%30.01 "HgN/A
1:00 PM73 °FBroken clouds.9 mph65%30.04 "HgN/A
12:30 PM73 °FBroken clouds.8 mph65%30.07 "HgN/A
12:00 PM73 °FBroken clouds.6 mph65%30.09 "HgN/A
Weather by CustomWeather, © 2015

See weather overviewHow to use our weather pages